Consulta les dades en temps real de l'estació meteorològica de Museu de l'Esquerda
| Hora UTC | 15:35 |
|---|---|
| Temperatura | 36.1 ºC |
| Humitat | 30.0 % |
| Pressió | 1019.7 hPa |
| Pluja | 0.0 mm |
| Velocitat vent | 8.0 km/h |
| Direcció vent | SW |
| Radiació solar | 403.0 W/m² |
| Temperatura (ºC) | Humitat (%) | Pressió (hPa) | Velocitat vent (km/h) | Precipitació (mm) | Radiació solar (W/m²) | |||||||||||||
|---|---|---|---|---|---|---|---|---|---|---|---|---|---|---|---|---|---|---|
| Hora UTC | Aire | Humitat | Pressió | Vel. | Dir. | Vel. Max | Dir. | Intent. màx 5 min. | Rad. Sol. | |||||||||
| 00:05 | 21.2 | 83.0 | 1020.9 | 0.0 | N | 0.0 | 0.0 | 0.0 | ||||||||||
| 00:10 | 21.1 | 83.0 | 1020.9 | 0.0 | N | 0.0 | 0.0 | 0.0 | ||||||||||
| 00:15 | 20.9 | 84.0 | 1020.9 | 0.0 | N | 0.0 | 0.0 | 0.0 | ||||||||||
| 00:20 | 20.8 | 84.0 | 1020.8 | 0.0 | N | 0.0 | 0.0 | 0.0 | ||||||||||
| 00:25 | 20.7 | 84.0 | 1020.9 | 0.0 | N | 0.0 | 0.0 | 0.0 | ||||||||||
| 00:30 | 20.6 | 84.0 | 1020.8 | 0.0 | N | 0.0 | 0.0 | 0.0 | ||||||||||
| 00:35 | 20.5 | 84.0 | 1020.9 | 0.0 | N | 0.0 | 0.0 | 0.0 | ||||||||||
| 00:40 | 20.4 | 85.0 | 1020.7 | 0.0 | N | 0.0 | 0.0 | 0.0 | ||||||||||
| 00:45 | 20.3 | 84.0 | 1020.7 | 0.0 | N | 0.0 | 0.0 | 0.0 | ||||||||||
| 00:50 | 20.3 | 85.0 | 1020.8 | 0.0 | N | 0.0 | 0.0 | 0.0 | ||||||||||
| 00:55 | 20.3 | 85.0 | 1020.7 | 0.0 | N | 0.0 | 0.0 | 0.0 | ||||||||||
| 01:00 | 20.3 | 85.0 | 1020.7 | 0.0 | N | 0.0 | 0.0 | 0.0 | ||||||||||
| 01:05 | 20.2 | 85.0 | 1020.8 | 0.0 | N | 0.0 | 0.0 | 0.0 | ||||||||||
| 01:10 | 20.2 | 85.0 | 1020.7 | 0.0 | N | 0.0 | 0.0 | 0.0 | ||||||||||
| 01:15 | 20.1 | 85.0 | 1020.7 | 0.0 | N | 0.0 | 0.0 | 0.0 | ||||||||||
| 01:20 | 20.1 | 86.0 | 1020.8 | 0.0 | N | 0.0 | 0.0 | 0.0 | ||||||||||
| 01:25 | 19.9 | 86.0 | 1020.8 | 0.0 | N | 0.0 | 0.0 | 0.0 | ||||||||||
| 01:30 | 19.8 | 86.0 | 1020.8 | 0.0 | N | 0.0 | 0.0 | 0.0 | ||||||||||
| 01:35 | 19.8 | 86.0 | 1020.9 | 0.0 | N | 0.0 | 0.0 | 0.0 | ||||||||||
| 01:40 | 19.7 | 86.0 | 1020.7 | 0.0 | N | 0.0 | 0.0 | 0.0 | ||||||||||
| 01:45 | 19.6 | 86.0 | 1020.8 | 0.0 | N | 0.0 | 0.0 | 0.0 | ||||||||||
| 01:50 | 19.4 | 86.0 | 1020.8 | 0.0 | N | 0.0 | 0.0 | 0.0 | ||||||||||
| 01:55 | 19.4 | 86.0 | 1020.8 | 0.0 | N | 0.0 | 0.0 | 0.0 | ||||||||||
| 02:00 | 19.4 | 86.0 | 1020.8 | 0.0 | N | 0.0 | 0.0 | 0.0 | ||||||||||
| 02:05 | 19.3 | 87.0 | 1020.8 | 0.0 | N | 0.0 | 0.0 | 0.0 | ||||||||||
| 02:10 | 19.3 | 87.0 | 1020.8 | 0.0 | N | 0.0 | 0.0 | 0.0 | ||||||||||
| 02:15 | 19.3 | 87.0 | 1020.7 | 0.0 | N | 0.0 | 0.0 | 0.0 | ||||||||||
| 02:20 | 19.2 | 87.0 | 1020.8 | 0.0 | N | 0.0 | 0.0 | 0.0 | ||||||||||
| 02:25 | 19.2 | 88.0 | 1020.7 | 0.0 | N | 0.0 | 0.0 | 0.0 | ||||||||||
| 02:30 | 19.2 | 88.0 | 1020.8 | 0.0 | N | 0.0 | 0.0 | 0.0 | ||||||||||
| 02:35 | 19.1 | 88.0 | 1020.7 | 0.0 | N | 0.0 | 0.0 | 0.0 | ||||||||||
| 02:40 | 19.1 | 88.0 | 1020.7 | 0.0 | N | 0.0 | 0.0 | 0.0 | ||||||||||
| 02:45 | 19.0 | 88.0 | 1020.7 | 0.0 | N | 0.0 | 0.0 | 0.0 | ||||||||||
| 02:50 | 18.9 | 88.0 | 1020.7 | 0.0 | N | 0.0 | 0.0 | 0.0 | ||||||||||
| 02:55 | 18.9 | 88.0 | 1020.7 | 0.0 | N | 0.0 | 0.0 | 0.0 | ||||||||||
| 03:00 | 18.8 | 88.0 | 1020.6 | 0.0 | N | 0.0 | 0.0 | 0.0 | ||||||||||
| 03:05 | 18.8 | 88.0 | 1020.7 | 0.0 | N | 0.0 | 0.0 | 0.0 | ||||||||||
| 03:10 | 18.7 | 88.0 | 1020.7 | 0.0 | N | 0.0 | 0.0 | 0.0 | ||||||||||
| 03:15 | 18.6 | 87.0 | 1020.7 | 0.0 | N | 0.0 | 0.0 | 0.0 | ||||||||||
| 03:20 | 18.4 | 88.0 | 1020.7 | 0.0 | N | 0.0 | 0.0 | 0.0 | ||||||||||
| 03:25 | 18.3 | 88.0 | 1020.7 | 0.0 | N | 0.0 | 0.0 | 0.0 | ||||||||||
| 03:30 | 18.3 | 88.0 | 1020.9 | 0.0 | N | 0.0 | 0.0 | 0.0 | ||||||||||
| 03:35 | 18.3 | 88.0 | 1020.7 | 0.0 | N | 0.0 | 0.0 | 0.0 | ||||||||||
| 03:40 | 18.3 | 88.0 | 1020.7 | 0.0 | N | 0.0 | 0.0 | 0.0 | ||||||||||
| 03:45 | 18.2 | 88.0 | 1020.7 | 0.0 | N | 0.0 | 0.0 | 0.0 | ||||||||||
| 03:50 | 18.1 | 88.0 | 1020.6 | 0.0 | N | 0.0 | 0.0 | 0.0 | ||||||||||
| 03:55 | 18.1 | 88.0 | 1020.7 | 0.0 | N | 0.0 | 0.0 | 0.0 | ||||||||||
| 04:00 | 18.1 | 88.0 | 1020.7 | 0.0 | N | 0.0 | 0.0 | 0.0 | ||||||||||
| 04:05 | 18.1 | 89.0 | 1020.6 | 0.0 | N | 0.0 | 0.0 | 0.0 | ||||||||||
| 04:10 | 18.1 | 89.0 | 1020.6 | 0.0 | N | 0.0 | 0.0 | 0.0 | ||||||||||
| 04:15 | 18.1 | 89.0 | 1020.6 | 0.0 | N | 0.0 | 0.0 | 0.0 | ||||||||||
| 04:20 | 18.1 | 89.0 | 1020.6 | 0.0 | N | 0.0 | 0.0 | 0.0 | ||||||||||
| 04:25 | 17.9 | 88.0 | 1020.6 | 0.0 | SSW | 0.0 | 0.0 | 0.0 | ||||||||||
| 04:30 | 17.8 | 89.0 | 1020.7 | 0.0 | SSW | 0.0 | 0.0 | 0.0 | ||||||||||
| 04:35 | 17.8 | 89.0 | 1020.7 | 0.0 | SSW | 0.0 | 0.0 | 0.0 | ||||||||||
| 04:40 | 17.8 | 89.0 | 1020.8 | 0.0 | SSW | 0.0 | 0.0 | 0.0 | ||||||||||
| 04:45 | 17.7 | 89.0 | 1020.9 | 0.0 | SSW | 0.0 | 0.0 | 0.0 | ||||||||||
| 04:50 | 17.7 | 89.0 | 1021.0 | 0.0 | SSW | 0.0 | 0.0 | 0.0 | ||||||||||
| 04:55 | 17.7 | 89.0 | 1021.0 | 0.0 | SSW | 0.0 | 0.0 | 0.0 | ||||||||||
| 05:00 | 17.7 | 90.0 | 1020.9 | 0.0 | SSW | 0.0 | 0.0 | 0.0 | ||||||||||
| 05:05 | 17.7 | 90.0 | 1021.1 | 0.0 | SSW | 0.0 | 0.0 | 0.0 | ||||||||||
| 05:10 | 17.7 | 90.0 | 1021.1 | 0.0 | SSW | 0.0 | 0.0 | 0.0 | ||||||||||
| 05:15 | 17.7 | 90.0 | 1021.2 | 0.0 | SSW | 0.0 | 0.0 | 0.0 | ||||||||||
| 05:20 | 17.7 | 90.0 | 1021.2 | 0.0 | SSW | 0.0 | 0.0 | 0.0 | ||||||||||
| 05:25 | 17.7 | 90.0 | 1021.3 | 0.0 | SSW | 0.0 | 0.0 | 0.0 | ||||||||||
| 05:30 | 17.6 | 90.0 | 1021.1 | 0.0 | SSW | 0.0 | 0.0 | 5.0 | ||||||||||
| 05:35 | 17.6 | 90.0 | 1021.2 | 0.0 | SSW | 0.0 | 0.0 | 9.0 | ||||||||||
| 05:40 | 17.6 | 91.0 | 1021.2 | 0.0 | SSW | 0.0 | 0.0 | 12.0 | ||||||||||
| 05:45 | 17.5 | 91.0 | 1021.4 | 0.0 | SSW | 0.0 | 0.0 | 14.0 | ||||||||||
| 05:50 | 17.4 | 90.0 | 1021.4 | 0.0 | SSW | 0.0 | 0.0 | 16.0 | ||||||||||
| 05:55 | 17.3 | 91.0 | 1021.3 | 0.0 | SSW | 0.0 | 0.0 | 19.0 | ||||||||||
| 06:00 | 17.3 | 91.0 | 1021.4 | 0.0 | SSW | 0.0 | 0.0 | 23.0 | ||||||||||
| 06:05 | 17.3 | 90.0 | 1021.3 | 0.0 | SSW | 0.0 | 0.0 | 26.0 | ||||||||||
| 06:10 | 17.2 | 91.0 | 1021.4 | 0.0 | SSW | 0.0 | 0.0 | 25.0 | ||||||||||
| 06:15 | 17.2 | 91.0 | 1021.5 | 0.0 | SSW | 0.0 | 0.0 | 30.0 | ||||||||||
| 06:20 | 17.2 | 91.0 | 1021.5 | 0.0 | SSW | 0.0 | 0.0 | 32.0 | ||||||||||
| 06:25 | 17.3 | 91.0 | 1021.6 | 0.0 | SSW | 0.0 | 0.0 | 40.0 | ||||||||||
| 06:30 | 17.3 | 91.0 | 1021.6 | 0.0 | SSW | 0.0 | 0.0 | 54.0 | ||||||||||
| 06:35 | 17.3 | 91.0 | 1021.7 | 0.0 | N | 0.0 | 0.0 | 84.0 | ||||||||||
| 06:40 | 17.3 | 91.0 | 1021.8 | 0.0 | N | 0.0 | 0.0 | 83.0 | ||||||||||
| 06:45 | 17.3 | 91.0 | 1021.8 | 0.0 | N | 0.0 | 0.0 | 125.0 | ||||||||||
| 06:50 | 17.7 | 91.0 | 1021.8 | 0.0 | N | 0.0 | 0.0 | 148.0 | ||||||||||
| 06:55 | 18.1 | 90.0 | 1021.8 | 0.0 | N | 0.0 | 0.0 | 162.0 | ||||||||||
| 07:00 | 18.6 | 88.0 | 1021.9 | 0.0 | N | 0.0 | 0.0 | 174.0 | ||||||||||
| 07:05 | 19.1 | 87.0 | 1022.0 | 0.0 | N | 0.0 | 0.0 | 190.0 | ||||||||||
| 07:10 | 19.5 | 85.0 | 1021.9 | 0.0 | N | 0.0 | 0.0 | 207.0 | ||||||||||
| 07:15 | 19.9 | 83.0 | 1022.0 | 0.0 | N | 0.0 | 0.0 | 223.0 | ||||||||||
| 07:20 | 20.3 | 81.0 | 1021.9 | 0.0 | N | 0.0 | 0.0 | 236.0 | ||||||||||
| 07:25 | 20.6 | 80.0 | 1022.1 | 0.0 | N | 0.0 | 0.0 | 253.0 | ||||||||||
| 07:30 | 20.7 | 79.0 | 1022.0 | 0.0 | N | 0.0 | 0.0 | 267.0 | ||||||||||
| 07:35 | 21.2 | 78.0 | 1022.0 | 0.0 | SSW | 0.0 | 0.0 | 279.0 | ||||||||||
| 07:40 | 21.3 | 77.0 | 1022.0 | 0.0 | SSW | 0.0 | 0.0 | 288.0 | ||||||||||
| 07:45 | 21.6 | 76.0 | 1022.0 | 0.0 | SSW | 0.0 | 0.0 | 308.0 | ||||||||||
| 07:50 | 21.9 | 75.0 | 1022.1 | 0.0 | SSW | 0.0 | 0.0 | 322.0 | ||||||||||
| 07:55 | 22.3 | 74.0 | 1022.1 | 0.0 | SSW | 0.0 | 0.0 | 336.0 | ||||||||||
| 08:00 | 22.5 | 73.0 | 1022.1 | 0.0 | SSW | 0.0 | 0.0 | 348.0 | ||||||||||
| 08:05 | 22.7 | 74.0 | 1022.1 | 0.0 | SSW | 0.0 | 0.0 | 362.0 | ||||||||||
| 08:10 | 23.1 | 71.0 | 1022.0 | 0.0 | SSW | 0.0 | 0.0 | 374.0 | ||||||||||
| 08:15 | 23.3 | 70.0 | 1022.0 | 0.0 | SSW | 0.0 | 0.0 | 388.0 | ||||||||||
| 08:20 | 23.7 | 70.0 | 1022.0 | 0.0 | SSW | 0.0 | 0.0 | 399.0 | ||||||||||
| 08:25 | 24.2 | 69.0 | 1022.0 | 0.0 | SSW | 0.0 | 0.0 | 410.0 | ||||||||||
| 08:30 | 24.5 | 68.0 | 1022.1 | 0.0 | SSW | 0.0 | 0.0 | 425.0 | ||||||||||
| 08:35 | 24.8 | 67.0 | 1022.0 | 0.0 | SSW | 0.0 | 0.0 | 438.0 | ||||||||||
| 08:40 | 25.3 | 65.0 | 1022.0 | 0.0 | SSW | 0.0 | 0.0 | 450.0 | ||||||||||
| 08:45 | 25.2 | 65.0 | 1022.1 | 0.0 | WNW | 0.0 | 0.0 | 462.0 | ||||||||||
| 08:50 | 25.3 | 64.0 | 1022.1 | 0.0 | WSW | 0.0 | 0.0 | 475.0 | ||||||||||
| 08:55 | 25.9 | 63.0 | 1022.1 | 0.0 | WSW | 0.0 | 0.0 | 485.0 | ||||||||||
| 09:00 | 26.3 | 62.0 | 1022.1 | 0.0 | WSW | 0.0 | 0.0 | 497.0 | ||||||||||
| 09:05 | 26.8 | 60.0 | 1022.0 | 0.0 | WSW | 0.0 | 0.0 | 506.0 | ||||||||||
| 09:10 | 27.2 | 60.0 | 1022.1 | 0.0 | WSW | 0.0 | 0.0 | 517.0 | ||||||||||
| 09:15 | 27.5 | 58.0 | 1022.0 | 0.0 | WSW | 0.0 | 0.0 | 529.0 | ||||||||||
| 09:20 | 27.3 | 58.0 | 1022.1 | 0.0 | WSW | 0.0 | 0.0 | 540.0 | ||||||||||
| 09:25 | 28.0 | 57.0 | 1022.0 | 0.0 | WSW | 0.0 | 0.0 | 550.0 | ||||||||||
| 09:30 | 28.4 | 55.0 | 1022.0 | 0.0 | WSW | 0.0 | 0.0 | 561.0 | ||||||||||
| 09:35 | 28.9 | 55.0 | 1021.9 | 0.0 | WSW | 0.0 | 0.0 | 571.0 | ||||||||||
| 09:40 | 29.0 | 53.0 | 1022.0 | 0.0 | WSW | 0.0 | 0.0 | 580.0 | ||||||||||
| 09:45 | 29.7 | 51.0 | 1021.8 | 0.0 | WSW | 0.0 | 0.0 | 587.0 | ||||||||||
| 09:50 | 30.2 | 51.0 | 1021.7 | 0.0 | WSW | 0.0 | 0.0 | 594.0 | ||||||||||
| 09:55 | 30.4 | 50.0 | 1021.7 | 0.0 | SW | 0.0 | 0.0 | 601.0 | ||||||||||
| 10:00 | 30.7 | 47.0 | 1021.7 | 0.0 | SW | 0.0 | 0.0 | 603.0 | ||||||||||
| 10:05 | 31.1 | 45.0 | 1021.6 | 0.0 | SW | 0.0 | 0.0 | 612.0 | ||||||||||
| 10:10 | 31.4 | 45.0 | 1021.5 | 0.0 | SW | 0.0 | 0.0 | 621.0 | ||||||||||
| 10:15 | 32.4 | 44.0 | 1021.5 | 0.0 | SW | 0.0 | 0.0 | 633.0 | ||||||||||
| 10:20 | 32.7 | 41.0 | 1021.5 | 0.0 | SW | 0.0 | 0.0 | 638.0 | ||||||||||
| 10:25 | 32.7 | 40.0 | 1021.4 | 0.0 | SSW | 1.6 | 0.0 | 643.0 | ||||||||||
| 10:30 | 32.7 | 40.0 | 1021.4 | 0.0 | SSW | 1.6 | 0.0 | 649.0 | ||||||||||
| 10:35 | 33.0 | 39.0 | 1021.2 | 0.0 | SSW | 0.0 | 0.0 | 657.0 | ||||||||||
| 10:40 | 33.6 | 39.0 | 1021.2 | 0.0 | S | 0.0 | 0.0 | 663.0 | ||||||||||
| 10:45 | 34.2 | 36.0 | 1021.2 | 0.0 | S | 0.0 | 0.0 | 666.0 | ||||||||||
| 10:50 | 34.1 | 36.0 | 1021.1 | 0.0 | SE | 0.0 | 0.0 | 671.0 | ||||||||||
| 10:55 | 34.6 | 35.0 | 1021.0 | 0.0 | SE | 0.0 | 0.0 | 679.0 | ||||||||||
| 11:00 | 34.7 | 33.0 | 1021.0 | 0.0 | ESE | 1.6 | 0.0 | 679.0 | ||||||||||
| 11:05 | 34.9 | 33.0 | 1020.9 | 0.0 | ESE | 1.6 | 0.0 | 682.0 | ||||||||||
| 11:10 | 35.7 | 31.0 | 1020.7 | 0.0 | ESE | 1.6 | 0.0 | 684.0 | ||||||||||
| 11:15 | 35.9 | 31.0 | 1020.6 | 0.0 | NE | 1.6 | 0.0 | 686.0 | ||||||||||
| 11:20 | 36.2 | 31.0 | 1020.6 | 0.0 | E | 1.6 | 0.0 | 691.0 | ||||||||||
| 11:25 | 36.9 | 30.0 | 1020.6 | 0.0 | S | 0.0 | 0.0 | 691.0 | ||||||||||
| 11:30 | 37.1 | 27.0 | 1020.6 | 0.0 | SW | 12.9 | 0.0 | 696.0 | ||||||||||
| 11:35 | 36.9 | 27.0 | 1020.7 | 0.0 | WSW | 12.9 | 0.0 | 696.0 | ||||||||||
| 11:40 | 37.2 | 29.0 | 1020.6 | 1.6 | WSW | 12.9 | 0.0 | 696.0 | ||||||||||
| 11:45 | 36.9 | 27.0 | 1020.6 | 4.8 | SSW | 17.7 | 0.0 | 696.0 | ||||||||||
| 11:50 | 37.2 | 27.0 | 1020.6 | 9.7 | SSE | 19.3 | 0.0 | 696.0 | ||||||||||
| 11:55 | 37.6 | 26.0 | 1020.5 | 8.0 | S | 20.9 | 0.0 | 693.0 | ||||||||||
| 12:00 | 37.8 | 26.0 | 1020.4 | 4.8 | SSE | 16.1 | 0.0 | 694.0 | ||||||||||
| 12:05 | 37.9 | 27.0 | 1020.4 | 4.8 | S | 16.1 | 0.0 | 696.0 | ||||||||||
| 12:10 | 37.7 | 26.0 | 1020.3 | 12.9 | SSW | 22.5 | 0.0 | 693.0 | ||||||||||
| 12:15 | 37.6 | 26.0 | 1020.2 | 12.9 | SW | 19.3 | 0.0 | 691.0 | ||||||||||
| 12:20 | 37.7 | 26.0 | 1020.2 | 6.4 | S | 25.7 | 0.0 | 693.0 | ||||||||||
| 12:25 | 37.5 | 26.0 | 1020.2 | 14.5 | S | 24.1 | 0.0 | 686.0 | ||||||||||
| 12:30 | 37.3 | 27.0 | 1020.2 | 12.9 | SW | 22.5 | 0.0 | 684.0 | ||||||||||
| 12:35 | 37.9 | 26.0 | 1020.1 | 24.1 | WSW | 24.1 | 0.0 | 677.0 | ||||||||||
| 12:40 | 37.7 | 26.0 | 1020.0 | 6.4 | SW | 20.9 | 0.0 | 677.0 | ||||||||||
| 12:45 | 37.6 | 27.0 | 1019.9 | 8.0 | S | 20.9 | 0.0 | 673.0 | ||||||||||
| 12:50 | 37.8 | 26.0 | 1019.8 | 17.7 | WSW | 24.1 | 0.0 | 666.0 | ||||||||||
| 12:55 | 37.4 | 26.0 | 1019.8 | 9.7 | S | 20.9 | 0.0 | 661.0 | ||||||||||
| 13:00 | 37.6 | 26.0 | 1019.9 | 14.5 | SW | 24.1 | 0.0 | 654.0 | ||||||||||
| 13:05 | 37.6 | 26.0 | 1019.8 | 6.4 | SSW | 24.1 | 0.0 | 645.0 | ||||||||||
| 13:10 | 37.4 | 27.0 | 1019.8 | 9.7 | SSW | 19.3 | 0.0 | 645.0 | ||||||||||
| 13:15 | 37.3 | 27.0 | 1019.7 | 8.0 | WSW | 24.1 | 0.0 | 640.0 | ||||||||||
| 13:20 | 37.8 | 27.0 | 1019.7 | 14.5 | WSW | 24.1 | 0.0 | 631.0 | ||||||||||
| 13:25 | 37.9 | 27.0 | 1019.7 | 14.5 | SSE | 22.5 | 0.0 | 628.0 | ||||||||||
| 13:30 | 37.8 | 26.0 | 1019.8 | 12.9 | SSE | 25.7 | 0.0 | 617.0 | ||||||||||
| 13:35 | 37.6 | 27.0 | 1019.7 | 24.1 | SSE | 25.7 | 0.0 | 610.0 | ||||||||||
| 13:40 | 37.1 | 28.0 | 1019.7 | 11.3 | SSW | 25.7 | 0.0 | 608.0 | ||||||||||
| 13:45 | 36.9 | 27.0 | 1019.7 | 8.0 | SW | 25.7 | 0.0 | 599.0 | ||||||||||
| 13:50 | 36.9 | 27.0 | 1019.6 | 6.4 | SSW | 29.0 | 0.0 | 592.0 | ||||||||||
| 13:55 | 37.0 | 28.0 | 1019.7 | 6.4 | SW | 24.1 | 0.0 | 584.0 | ||||||||||
| 14:00 | 37.3 | 27.0 | 1019.6 | 12.9 | WSW | 22.5 | 0.0 | 580.0 | ||||||||||
| 14:05 | 37.2 | 27.0 | 1019.7 | 14.5 | SSW | 20.9 | 0.0 | 570.0 | ||||||||||
| 14:10 | 37.1 | 27.0 | 1019.7 | 12.9 | S | 25.7 | 0.0 | 566.0 | ||||||||||
| 14:15 | 37.2 | 27.0 | 1019.6 | 16.1 | S | 25.7 | 0.0 | 554.0 | ||||||||||
| 14:20 | 36.9 | 27.0 | 1019.6 | 16.1 | WSW | 30.6 | 0.0 | 547.0 | ||||||||||
| 14:25 | 36.9 | 28.0 | 1019.7 | 6.4 | SSE | 22.5 | 0.0 | 536.0 | ||||||||||
| 14:30 | 37.1 | 26.0 | 1019.6 | 8.0 | SW | 22.5 | 0.0 | 522.0 | ||||||||||
| 14:35 | 36.6 | 28.0 | 1019.6 | 19.3 | SW | 27.4 | 0.0 | 515.0 | ||||||||||
| 14:40 | 36.7 | 28.0 | 1019.7 | 9.7 | S | 32.2 | 0.0 | 503.0 | ||||||||||
| 14:45 | 36.5 | 28.0 | 1019.7 | 11.3 | WSW | 32.2 | 0.0 | 492.0 | ||||||||||
| 14:50 | 36.6 | 28.0 | 1019.6 | 11.3 | SW | 29.0 | 0.0 | 490.0 | ||||||||||
| 14:55 | 36.5 | 28.0 | 1019.6 | 17.7 | WSW | 29.0 | 0.0 | 490.0 | ||||||||||
| 15:00 | 36.6 | 28.0 | 1019.6 | 16.1 | SW | 30.6 | 0.0 | 499.0 | ||||||||||
| 15:05 | 36.6 | 28.0 | 1019.6 | 8.0 | SW | 30.6 | 0.0 | 531.0 | ||||||||||
| 15:10 | 36.8 | 28.0 | 1019.6 | 17.7 | SW | 24.1 | 0.0 | 496.0 | ||||||||||
| 15:15 | 36.7 | 28.0 | 1019.6 | 4.8 | SW | 25.7 | 0.0 | 475.0 | ||||||||||
| 15:20 | 36.6 | 28.0 | 1019.6 | 19.3 | W | 30.6 | 0.0 | 480.0 | ||||||||||
| 15:25 | 36.3 | 29.0 | 1019.7 | 16.1 | S | 29.0 | 0.0 | 438.0 | ||||||||||
| 15:30 | 36.2 | 29.0 | 1019.7 | 22.5 | SW | 29.0 | 0.0 | 424.0 | ||||||||||
| 15:35 | 36.1 | 30.0 | 1019.7 | 8.0 | SW | 22.5 | 0.0 | 403.0 | ||||||||||
| Màxima | 37.9 | 91.0 | 1022.1 | 24.1 | SSE | 32.2 | 0.0 | 696.0 | ||||||||||
| Mínima | 17.2 | 26.0 | 1019.6 | |||||||||||||||
| Total | 0.0 | |||||||||||||||||